Location: Recife
(8.0585°S, 34.8848°W)
Time: 13:28:03
(UTC-03:00)

Injun/Solrad 3 - Pass Details

Date: 14 April 2026
Orbit: 868 x 988 km, 66.8° (Epoch: 12 May)

Event Time Altitude Azimuth Distance (km) Brightness Sun altitude
Rises 18:57:17 0° 174° (S) 3,463 10.8 -25.2°
Enters shadow 18:57:28 - 173° (S) 3,407 10.7 -25.3°
Reaches altitude 10° 19:00:34 10° 156° (SSE) 2,516 - -26.1°
Maximum altitude 19:04:29 19° 113° (ESE) 1,970 - -27.0°
Drops below altitude 10° 19:08:24 10° 70° (ENE) 2,513 - -28.0°
Sets 19:11:38 0° 52° (NE) 3,457 - -28.8°
